Location: Carr Mill
(33.2054°N, 85.9439°W)
Time: 21:21:07
(UTC+00:00)

STARLINK-2704 - Pass Details

Date: 24 June 2021
Orbit: 546 x 548 km, 53.1° (Epoch: 04 August)

Event Time Altitude Azimuth Distance (km) Brightness Sun altitude
Exits shadow 09:39:31 - 279° (W) 2,143 6.2 -10.7°
Reaches altitude 10° 09:40:44 10° 290° (WNW) 1,815 6.0 -10.5°
Maximum altitude 09:43:17 16° 329° (NNW) 1,484 5.9 -10.1°
Drops below altitude 10° 09:45:51 10° 7° (N) 1,821 6.9 -9.7°
Sets 09:48:51 0° 30° (NNE) 2,718 8.5 -9.1°
